Weather History for Litchfield, MN

Change the Weather History Date:

Saturday, February 18, 2012

  Actual Average Record
Temperature  
Mean Temperature 24 °F -  
Max Temperature 35 °F 29 °F 56 °F (1954)
Min Temperature 12 °F 13 °F -18 °F (2006)
Degree Days  
Heating Degree Days 42    
Moisture  
Dew Point 13 °F    
Average Humidity 67    
Maximum Humidity 93    
Minimum Humidity 41    
Precipitation  
Precipitation 0.00 in - - ()
Sea Level Pressure  
Sea Level Pressure 30.19 in    
Wind  
Wind Speed 4 mph (West)    
Max Wind Speed 8 mph    
Max Gust Speed -    
Visibility 10 miles    
Events      
Averages and records for this station are not official NWS values.
T = Trace of Precipitation, MM = Missing Value Source: NWS Daily Summary

Daily Weather History Graph

Daily Weather History Graph

Search for Another Location

Airport:

Trip Planner

Search our weather history database for the weather conditions in past years. The results will help you decide how hot, cold, wet, or windy it might be!

Date:

Astronomy

Feb. 18, 2012 Rise Set
Actual Time 7:15 AM CST 5:49 PM CST
Civil Twilight 6:45 AM CST 6:19 PM CST
Nautical Twilight 6:10 AM CST 6:53 PM CST
Astronomical Twilight 5:36 AM CST 7:27 PM CST
Moon 5:02 AM CST (2/18) 2:41 PM CST (2/18)
Length of Visible Light 11h 34m
Length of Day
10h 34m
Waning Crescent, 11% of the Moon is Illuminated
Feb 18
Waning Crescent
Feb 21
New
Feb 29
First Quarter
Mar 8
Full
Mar 14
Last Quarter

Hourly Weather History & Observations

Time (CST) Temp. Windchill Dew Point Humidity Pressure Visibility Wind Dir Wind Speed Gust Speed Precip Events Conditions
12:13 AM 19.4 °F 9.5 °F 12.2 °F 74% 30.18 in 10.0 mi NNW 8.1 mph - N/A   Clear
12:33 AM 19.4 °F 11.5 °F 12.2 °F 74% 30.18 in 10.0 mi NNW 5.8 mph - N/A   Clear
12:53 AM 19.4 °F 10.4 °F 12.2 °F 74% 30.19 in 10.0 mi NW 6.9 mph - N/A   Clear
1:13 AM 19.4 °F 11.5 °F 12.2 °F 74% 30.19 in 10.0 mi NW 5.8 mph - N/A   Clear
1:33 AM 19.4 °F 12.8 °F 12.2 °F 74% 30.19 in 10.0 mi WNW 4.6 mph - N/A   Clear
1:53 AM 17.6 °F 12.3 °F 12.2 °F 79% 30.20 in 10.0 mi WNW 3.5 mph - N/A   Clear
2:13 AM 17.6 °F 9.3 °F 10.4 °F 73% 30.20 in 10.0 mi WNW 5.8 mph - N/A   Clear
2:33 AM 17.6 °F 9.3 °F 10.4 °F 73% 30.20 in 10.0 mi WNW 5.8 mph - N/A   Clear
2:53 AM 17.6 °F 9.3 °F 10.4 °F 73% 30.20 in 10.0 mi WNW 5.8 mph - N/A   Clear
3:13 AM 17.6 °F 9.3 °F 10.4 °F 73% 30.20 in 10.0 mi WNW 5.8 mph - N/A   Clear
3:33 AM 17.6 °F 10.7 °F 10.4 °F 73% 30.20 in 10.0 mi West 4.6 mph - N/A   Clear
3:53 AM 15.8 °F 8.6 °F 12.2 °F 86% 30.20 in 10.0 mi West 4.6 mph - N/A   Clear
4:13 AM 15.8 °F 8.6 °F 10.4 °F 79% 30.20 in 10.0 mi WNW 4.6 mph - N/A   Clear
4:33 AM 15.8 °F 8.6 °F 10.4 °F 79% 30.20 in 10.0 mi WNW 4.6 mph - N/A   Clear
4:53 AM 15.8 °F 8.6 °F 10.4 °F 79% 30.20 in 10.0 mi WNW 4.6 mph - N/A   Clear
5:13 AM 14.0 °F 6.5 °F 10.4 °F 86% 30.20 in 10.0 mi West 4.6 mph - N/A   Clear
5:33 AM 14.0 °F 6.5 °F 12.2 °F 93% 30.20 in 10.0 mi WNW 4.6 mph - N/A   Clear
5:53 AM 15.8 °F 10.2 °F 12.2 °F 86% 30.20 in 10.0 mi WNW 3.5 mph - N/A   Clear
6:14 AM 12.2 °F 6.1 °F 10.4 °F 92% 30.20 in 10.0 mi NW 3.5 mph - N/A   Clear
6:33 AM 15.8 °F 8.6 °F 12.2 °F 86% 30.20 in 10.0 mi NW 4.6 mph - N/A   Clear
6:53 AM 15.8 °F 8.6 °F 12.2 °F 86% 30.20 in 10.0 mi NW 4.6 mph - N/A   Clear
7:13 AM 12.2 °F - 10.4 °F 92% 30.21 in 10.0 mi Calm Calm - N/A   Clear
7:33 AM 14.0 °F - 12.2 °F 93% 30.21 in 10.0 mi Calm Calm - N/A   Clear
7:53 AM 12.2 °F - 10.4 °F 92% 30.22 in 10.0 mi Calm Calm - N/A   Clear
8:13 AM 15.8 °F - 12.2 °F 86% 30.22 in 10.0 mi Calm Calm - N/A   Clear
8:33 AM 17.6 °F - 14.0 °F 86% 30.22 in 10.0 mi Calm Calm - N/A   Clear
8:52 AM 17.6 °F - 15.8 °F 93% 30.22 in 10.0 mi Calm Calm - N/A   Clear
9:13 AM 19.4 °F - 15.8 °F 86% 30.23 in 10.0 mi Calm Calm - N/A   Clear
9:33 AM 21.2 °F - 15.8 °F 80% 30.23 in 10.0 mi Calm Calm - N/A   Clear
9:52 AM 21.2 °F - 17.6 °F 86% 30.23 in 10.0 mi Calm Calm - N/A   Clear
10:13 AM 24.8 °F - 19.4 °F 80% 30.23 in 10.0 mi Calm Calm - N/A   Clear
10:33 AM 26.6 °F 21.2 °F 17.6 °F 69% 30.24 in 10.0 mi SSW 4.6 mph - N/A   Clear
10:52 AM 26.6 °F 22.6 °F 15.8 °F 64% 30.24 in 10.0 mi SW 3.5 mph - N/A   Clear
11:13 AM 28.4 °F 23.3 °F 15.8 °F 59% 30.24 in 10.0 mi South 4.6 mph - N/A   Clear
11:33 AM 28.4 °F 23.3 °F 14.0 °F 55% 30.24 in 10.0 mi South 4.6 mph - N/A   Clear
11:53 AM 30.2 °F 23.4 °F 14.0 °F 51% 30.23 in 10.0 mi SW 6.9 mph - N/A   Clear
12:13 PM 30.2 °F 25.4 °F 14.0 °F 51% 30.22 in 10.0 mi SW 4.6 mph - N/A   Clear
12:33 PM 30.2 °F - 14.0 °F 51% 30.21 in 10.0 mi Calm Calm - N/A   Clear
12:53 PM 32.0 °F - 12.2 °F 44% 30.20 in 10.0 mi Calm Calm - N/A   Clear
1:13 PM 32.0 °F 27.5 °F 12.2 °F 44% 30.19 in 10.0 mi WSW 4.6 mph - N/A   Clear
1:33 PM 33.8 °F 30.8 °F 12.2 °F 41% 30.18 in 10.0 mi WSW 3.5 mph - N/A   Clear
1:53 PM 33.8 °F - 12.2 °F 41% 30.17 in 10.0 mi Calm Calm - N/A   Clear
2:13 PM 33.8 °F - 12.2 °F 41% 30.16 in 10.0 mi Calm Calm - N/A   Clear
2:33 PM 33.8 °F - 12.2 °F 41% 30.15 in 10.0 mi Calm Calm - N/A   Clear
3:13 PM 35.6 °F - 14.0 °F 41% 30.15 in 10.0 mi Calm Calm - N/A   Clear
3:33 PM 35.6 °F - 14.0 °F 41% 30.14 in 10.0 mi Calm Calm - N/A   Clear
3:53 PM 35.6 °F 31.7 °F 14.0 °F 41% 30.14 in 10.0 mi SW 4.6 mph - N/A   Clear
4:14 PM 35.6 °F - 15.8 °F 44% 30.13 in 10.0 mi Calm Calm - N/A   Clear
4:33 PM 35.6 °F - 15.8 °F 44% 30.13 in 10.0 mi Calm Calm - N/A   Clear
4:53 PM 35.6 °F - 15.8 °F 44% 30.13 in 10.0 mi Calm Calm - N/A   Clear
5:13 PM 33.8 °F 30.8 °F 15.8 °F 48% 30.13 in 10.0 mi SE 3.5 mph - N/A   Clear
5:33 PM 33.8 °F - 15.8 °F 48% 30.13 in 10.0 mi Calm Calm - N/A   Clear
5:53 PM 30.2 °F 26.7 °F 15.8 °F 55% 30.13 in 10.0 mi SE 3.5 mph - N/A   Clear
6:33 PM 30.2 °F - 15.8 °F 55% 30.13 in 10.0 mi Calm Calm - N/A   Clear
6:53 PM 28.4 °F 24.6 °F 15.8 °F 59% 30.13 in 10.0 mi SSE 3.5 mph - N/A   Clear
7:13 PM 28.4 °F 24.6 °F 15.8 °F 59% 30.13 in 10.0 mi SSE 3.5 mph - N/A   Clear
7:33 PM 28.4 °F 23.3 °F 15.8 °F 59% 30.13 in 10.0 mi SSE 4.6 mph - N/A   Clear
8:13 PM 28.4 °F 24.6 °F 15.8 °F 59% 30.13 in 10.0 mi SSE 3.5 mph - N/A   Clear
8:33 PM 26.6 °F 21.2 °F 15.8 °F 64% 30.13 in 10.0 mi SE 4.6 mph - N/A   Clear
8:52 PM 26.6 °F 22.6 °F 15.8 °F 64% 30.14 in 10.0 mi SSE 3.5 mph - N/A   Clear
9:13 PM 26.6 °F - 15.8 °F 64% 30.14 in 10.0 mi Calm Calm - N/A   Clear
9:33 PM 26.6 °F 22.6 °F 17.6 °F 69% 30.14 in 10.0 mi SSE 3.5 mph - N/A   Clear
9:52 PM 24.8 °F 20.5 °F 17.6 °F 74% 30.14 in 10.0 mi SSE 3.5 mph - N/A   Clear
10:13 PM 24.8 °F 20.5 °F 17.6 °F 74% 30.14 in 10.0 mi SSE 3.5 mph - N/A   Clear
10:33 PM 24.8 °F - 17.6 °F 74% 30.13 in 10.0 mi Calm Calm - N/A   Clear
10:53 PM 24.8 °F - 17.6 °F 74% 30.13 in 10.0 mi Calm Calm - N/A   Clear
11:13 PM 23.0 °F - 17.6 °F 80% 30.14 in 10.0 mi Calm Calm - N/A   Clear
11:33 PM 24.8 °F - 19.4 °F 80% 30.14 in 10.0 mi Calm Calm - N/A   Clear
11:53 PM 23.0 °F - 19.4 °F 86% 30.13 in 10.0 mi Calm Calm - N/A   Clear